Retour au catalogue

SL-14 DEB

ActifPO
NORAD 35521·DEBRIS·🇷🇺 Russia

Lancé Aug 18, 1987 depuis Plesetsk Cosmodrome

Loading…

Prochains Passages (prochaines 24 heures)

TLE

FraisSource: Space-Track

Époque: Sep 13, 2026, 14:11 UTC

1 35521U 87068CQ  26256.59155387  .00000241  00000-0  18687-3 0  9999
2 35521  82.5580 199.7780 0011268  77.0872  45.0794 13.88887494669220

Suivez SL-14 DEB en temps réel avec AllMySat

Download on the App Store